STARLINK-3095, 49160

Orbit data source: Space-Track

STARLINK-3095, 49160 is a payload satellite owned by SpaceX/Seattle (US) in LEO that was launched on Tue, 14 Sep 2021 UTC via an FALCON 9 launch vehicle from the Air Force Western Test Range (AFWTR). Payload-class satellites include a variety of spacecraft equipped with specific instruments for various scientific and technological missions. These include communications satellites like Starlink; space stations such as the ISS; scientific satellites like the Hubble; Earth observation satellites from companies like Planet Labs, Umbra, and HawkEye 360; GPS; miniature CubeSats for education and research; and military/defense satellites.

Loading next visibility...
Identifier
49160, 2021-082AG
Orbit
LEO
Country
Flag of USUS
Related business
Manufacturer
SpaceX/Seattle
Mission
Operational Commercial Communications
Bus & Motor
STARLINK, Unknown motor
Mass
297 kg wet, ~275 kg dry
Launch date (UTC)
2021-09-14 (4 years ago)
Launch vehicle
FALCON 9
Launch site
Air Force Western Test Range (AFWTR)
Object type
Payload
Rocket body
Debris
Shape & HBR
Box + 1 Pan, 10.1 m
Radar Cross Section
13.562 m², Large (>1 m²)

Expand to show TLE details & history
Last TLE update: 12 hours ago

TLE from 12 hours ago
0 STARLINK-3095
1 49160U 21082AG  26071.74736513  .00000084  00000-0  14807-4 0  9991
2 49160  69.9978 286.7280 0002998 269.2219  90.8597 14.98331122247502
Epoch: 2026-03-12T17:56Z
TLE epoch observation values (Epoch: 2026-03-12T17:56:12.347Z)
Latitude
0.00003°
Longitude
-152.71625°
Altitude
574.508 km
Speed
7.574 km/s
True Right ascension
19h 06m 54s
True Declination
0° 00' 00"
Sunlit
Object was in daylight at epoch
Visualization orbit readout
Latitude
Unknown
Longitude
Unknown
Altitude
Unknown
Speed
Unknown
Apparent Right ascension
Unknown
Apparent Declination
Unknown
Sunlit
N/A
Visualization observer readout
Local Sidereal Time
10:06:36
Azimuth
Unknown
Elevation
Unknown
Doppler factor
Unknown
Orbital elements
Apogee altitude
572.084 km
Perigee altitude
567.918 km
Semi-major axis
6,948.138 km
Eccentricity
0.0003
Inclination
69.9978°
RAAN
286.728°
Arg. of periapsis
269.2219°
True anomaly
90.89405°
Mean anomaly
90.8597°
Eccentric anomaly
90.87688°
Mean motion
3.74749 °/min
Orbital period
96.06 mins
BSTAR
0.000014807
Loading maneuver chart data...
Computing Atmospheric mass density...

Documentation

Showing up to 5 results
|